Regional Weather Roundup
Issued by NWS

Home | Current Version | Previous Version | Graphics & Text | Print | Product List | Glossary On
Versions: 1 2 3 4 5 6 7 8 9 10 11 12 13 14 15 16 17 18 19 20 21 22 23 24 25 26 27 28 29 30 31 32 33 34 35 36 37 38 39 40 41 42 43 44 45 46 47 48 49 50
000
ASUS43 KOAX 071210
RWRNE

WEATHER ROUNDUP FOR NEBRASKA
NATIONAL WEATHER SERVICE OMAHA NE
700 AM CDT TUE JUL 07 2015

NOTES: SATELLITE DATA IS BEING USED TO AUGMENT CLOUD COVER ABOVE
       12000 FEET.
       "FAIR" INDICATES FEW OR NO CLOUDS BELOW 12,000 FEET WITH NO
       SIGNIFICANT WEATHER AND/OR OBSTRUCTIONS TO VISIBILITY.

  * THESE STATIONS DO NOT REPORT WEATHER SUCH AS RAIN...SNOW OR FOG.

NEZ001>004-019>022-054>056-071300-
NEBRASKA PANHANDLE

CITY           SKY/WX    TMP DP  RH WIND       PRES   REMARKS
SCOTTSBLUFF    CLOUDY    61  56  83 E7        30.19F HAZE
6HR MIN TEMP:  60; 6HR MAX TEMP:  64;

ALLIANCE       CLOUDY    56  54  93 SE6       30.20S FOG
6HR MIN TEMP:  51; 6HR MAX TEMP:  60;

CHADRON        MOCLDY    60  55  83 S7        30.16F HAZE
6HR MIN TEMP:  57; 6HR MAX TEMP:  61; 6HR PCP: TRACE;

KIMBALL          N/A    N/A N/A N/A MISG        N/A
SIDNEY         CLOUDY    57  53  86 S6        30.23S FOG
6HR MIN TEMP:  57; 6HR MAX TEMP:  62;

$$

NEZ057>060-069>072-079>082-071300-
SOUTHWEST NEBRASKA

CITY           SKY/WX    TMP DP  RH WIND       PRES   REMARKS
NORTH PLATTE   CLEAR     51  49  92 CALM      30.20R
6HR MIN TEMP:  49; 6HR MAX TEMP:  58;

IMPERIAL       CLEAR     55  51  86 CALM      30.21R
6HR MIN TEMP:  54; 6HR MAX TEMP:  63;

LEXINGTON      CLEAR     52  50  94 NW5       30.19R FOG
MCCOOK         CLEAR     54  52  93 NE6       30.19R FOG
6HR MIN TEMP:  54; 6HR MAX TEMP:  60;

OGALLALA       CLEAR     55  53  94 CALM      30.22R FOG
$$

NEZ005>010-023>029-035>040-094-071300-
NORTH CENTRAL NEBRASKA

CITY           SKY/WX    TMP DP  RH WIND       PRES   REMARKS
VALENTINE      CLEAR     52  51  97 CALM      30.19S
6HR MIN TEMP:  51; 6HR MAX TEMP:  57;

AINSWORTH      CLEAR     55  54  98 CALM      30.19S FOG
BROKEN BOW     CLEAR     52  50  93 CALM      30.18S FOG
6HR MIN TEMP:  51; 6HR MAX TEMP:  58;

O`NEILL        CLEAR     54  53  97 CALM      30.19R FOG
ORD            CLEAR     50  48  93 CALM      30.18R FOG
6HR MIN TEMP:  49; 6HR MAX TEMP:  55;

THEDFORD         N/A     51  50  97 CALM      30.21R FOG
$$

NEZ041-046>049-061>064-073>077-083>087-071300-
SOUTH CENTRAL NEBRASKA

CITY           SKY/WX    TMP DP  RH WIND       PRES   REMARKS
GRAND ISLAND   CLEAR     53  51  93 N3        30.18R FOG
6HR MIN TEMP:  52; 6HR MAX TEMP:  59;

AURORA           N/A     54  54 100 N3        30.18R FOG
HASTINGS       CLEAR     56  53  90 NE6       30.18R FOG
6HR MIN TEMP:  54; 6HR MAX TEMP:  62;

HEBRON         CLEAR     57  52  82 NE5       30.15R HAZE
HOLDREGE       CLEAR     52  50  94 NW3       30.19R FOG
KEARNEY *      CLEAR     54  50  87 N5        30.18R
YORK           CLEAR     55  54  94 N5        30.18R FOG
$$

NEZ011>018-030>034-042>045-071300-
NORTHEAST NEBRASKA

CITY           SKY/WX    TMP DP  RH WIND       PRES   REMARKS
NORFOLK        CLEAR     56  52  86 NE5       30.18R
6HR MIN TEMP:  52; 6HR MAX TEMP:  60;

ALBION           N/A     51  49  93 NW3       30.18R FOG
BLAIR          CLEAR     55  49  79 N7        30.14R
FREMONT        CLEAR     56  50  81 CALM      30.17R
TEKAMAH        CLEAR     55  52  89 N5        30.15R
6HR MIN TEMP:  53; 6HR MAX TEMP:  60;

WAYNE          CLEAR     50  50  97 CALM      30.19R FOG
$$

NEZ050>053-065>068-078-088>093-071300-
SOUTHEAST NEBRASKA

CITY           SKY/WX    TMP DP  RH WIND       PRES   REMARKS
LINCOLN        PTCLDY    56  52  86 N9        30.15R FOG
6HR MIN TEMP:  54; 6HR MAX TEMP:  64;

OMAHA EPPLEY   PTCLDY    57  51  80 N8        30.14R
6HR MIN TEMP:  54; 6HR MAX TEMP:  64;

BEATRICE       PTCLDY    57  51  80 N8        30.13R
FALLS CITY     MOCLDY    59  52  77 N12G17    30.09R
6HR MIN TEMP:  59; 6HR MAX TEMP:  68;

NEBRASKA CITY  PTCLDY    56  47  70 NE12G17   30.12R
PLATTSMOUTH    PTCLDY    56  48  75 N6        30.14R
$$

NEZ044-045-051>053-067-071300-
OMAHA AREA

CITY           SKY/WX    TMP DP  RH WIND       PRES   REMARKS
OMAHA EPPLEY   PTCLDY    57  51  80 N8        30.14R
6HR MIN TEMP:  54; 6HR MAX TEMP:  64;

BLAIR          CLEAR     55  49  79 N7        30.14R
FREMONT        CLEAR     56  50  81 CALM      30.17R
MILLARD        CLEAR     58  50  74 CALM      30.15R
OFFUTT AFB     CLEAR     58  47  66 N8G17     30.13R
PLATTSMOUTH    PTCLDY    56  48  75 N6        30.14R
WAHOO          FAIR      55  52  89 N5        30.16R
$$



USA.gov is the U.S. government's official web portal to all federal, state and local government web resources and services.